Ely, NV

6:36 PM PST on January 19, 2018 (GMT -0800)
Ely

Weather History for KELY - January, 2014

Change the Weather History Date:

Sunday, January 26, 2014

  Actual Average Record
Temperature  
Mean Temperature 31 °F 26 °F  
Max Temperature 51 °F 40 °F 58 °F (1987)
Min Temperature 10 °F 12 °F -25 °F (1949)
Degree Days  
Heating Degree Days 34 39  
Month to date heating degree days 874 1035  
Since 1 July heating degree days 3963 4135  
Cooling Degree Days 0 0  
Month to date cooling degree days 0 0  
Year to date cooling degree days 0 0  
Moisture  
Dew Point 9 °F    
Average Humidity 49    
Maximum Humidity 84    
Minimum Humidity 13    
Precipitation  
Precipitation 0.00 in 0.02 in 0.37 in (1957)
Month to date precipitation 0.04 0.59  
Year to date precipitation 0.04 0.59  
Snow  
Snow 0.00 in 0.30 in 5.70 in (1957)
Month to date snowfall 1.2 7.7  
Since 1 July snowfall 27.0 25.6  
Snow Depth 0.00 in    
Sea Level Pressure  
Sea Level Pressure 30.21 in    
Wind  
Wind Speed 9 mph (SSE)    
Max Wind Speed 17 mph    
Max Gust Speed 21 mph    
Visibility 10 miles    
Events      
T = Trace of Precipitation, MM = Missing Value Source: NWS Daily Summary

Daily Weather History Graph

Daily Weather History Graph

Search for Another Location

Airport or City:

Trip Planner

Search our weather history database for the weather conditions in past years. The results will help you decide how hot, cold, wet, or windy it might be!

Date:

Astronomy

Jan. 26, 2014 Rise Set
Actual Time 6:51 AM PST 4:53 PM PST
Civil Twilight 6:22 AM PST 5:21 PM PST
Nautical Twilight 5:50 AM PST 5:54 PM PST
Astronomical Twilight 5:18 AM PST 6:25 PM PST
Moon 2:33 AM PST (1/26) 12:46 PM PST (1/26)
Length of Visible Light 10h 59m
Length of Day
10h 01m
Waning Crescent, 23% of the Moon is Illuminated
Jan 26
Waning Crescent
Jan 30
New
Feb 6
First Quarter
Feb 14
Full
Feb 22
Last Quarter

Hourly Weather History & Observations

Time (PST) Temp. Windchill Dew Point Humidity Pressure Visibility Wind Dir Wind Speed Gust Speed Precip Events Conditions
12:53 AM 15.1 °F 1.1 °F 10.0 °F 80% 30.27 in 10.0 mi SSE 12.7 mph - N/A   Clear
1:53 AM 12.9 °F 2.6 °F 8.1 °F 81% 30.26 in 10.0 mi SSE 6.9 mph - N/A   Clear
2:53 AM 12.9 °F -1.6 °F 7.0 °F 77% 30.24 in 10.0 mi SSE 12.7 mph - N/A   Clear
3:53 AM 12.9 °F -1.6 °F 6.1 °F 74% 30.25 in 10.0 mi South 12.7 mph - N/A   Clear
4:53 AM 12.0 °F -2.7 °F 5.0 °F 73% 30.30 in 10.0 mi South 12.7 mph - N/A   Clear
5:53 AM 12.9 °F -2.2 °F 3.9 °F 67% 30.34 in 10.0 mi South 13.8 mph - N/A   Clear
6:53 AM 10.9 °F -4.1 °F 3.0 °F 70% 30.37 in 10.0 mi South 12.7 mph - N/A   Clear
7:53 AM 17.1 °F 2.5 °F 3.9 °F 56% 30.34 in 10.0 mi South 15.0 mph - N/A   Clear
8:53 AM 23.0 °F 12.4 °F 10.0 °F 58% 30.30 in 10.0 mi South 10.4 mph - N/A   Clear
9:53 AM 34.0 °F 27.2 °F 8.1 °F 34% 30.27 in 10.0 mi South 8.1 mph - N/A   Clear
10:53 AM 42.1 °F 40.2 °F 3.0 °F 20% 30.22 in 10.0 mi SSE 3.5 mph - N/A   Clear
11:53 AM 46.0 °F 43.9 °F 6.1 °F 20% 30.15 in 10.0 mi NNW 4.6 mph - N/A   Clear
12:53 PM 48.0 °F - 3.0 °F 16% 30.12 in 10.0 mi North 6.9 mph - N/A   Clear
1:53 PM 50.0 °F - 1.9 °F 14% 30.10 in 10.0 mi Calm Calm - N/A   Clear
2:53 PM 50.0 °F - 1.9 °F 14% 30.09 in 10.0 mi NNE 9.2 mph - N/A   Clear
3:53 PM 46.9 °F - 10.0 °F 22% 30.10 in 10.0 mi NNW 8.1 mph - N/A   Clear
4:53 PM 39.0 °F 32.8 °F 12.9 °F 34% 30.14 in 10.0 mi NW 9.2 mph - N/A   Clear
5:53 PM 28.9 °F 25.2 °F 17.1 °F 61% 30.19 in 10.0 mi ESE 3.5 mph - N/A   Clear
6:53 PM 27.0 °F - 16.0 °F 63% 30.24 in 10.0 mi Calm Calm - N/A   Clear
7:53 PM 25.0 °F 15.5 °F 18.0 °F 75% 30.22 in 10.0 mi South 9.2 mph - N/A   Clear
8:53 PM 24.1 °F 12.5 °F 17.1 °F 75% 30.20 in 10.0 mi SSE 12.7 mph - N/A   Clear
9:53 PM 21.0 °F 9.3 °F 15.1 °F 78% 30.16 in 10.0 mi South 11.5 mph - N/A   Clear
10:53 PM 19.9 °F 8.6 °F 14.0 °F 78% 30.14 in 10.0 mi South 10.4 mph - N/A   Clear
11:53 PM 19.0 °F 6.8 °F 14.0 °F 81% 30.12 in 10.0 mi South 11.5 mph - N/A   Clear